DISKSAT A

导读

DISKSAT A是一颗由美国发射的人造卫星,于2025年12月18日成功进入太空。作为美国航天发射序列中的一员,它承载着特定空间探测或技术验证任务,在发射入轨后已在轨运行近三个月,依托美国航天测控体系开展相关空间作业,服务于美国航天技术发展与空间科学探索相关目标。

基本信息
目录编号:
67222
目录名称:
DISKSAT A
国际标识:
2025-305D
轨道中心:
EARTH
卫星名称:
DISKSAT A
卫星全名:
DISKSAT A
卫星状态:
在轨 (已飞行260 天)
发射日期:
2025-12-18 UTC
国别 :
美国 (US)
星等 :
--
轨道信息
数据来源 国际轨道数据
星历时间: 2026-09-03T19:00:37+0800
1天前
查看轨道信息
半长轴: 6913.352km
偏心率: 0.0007108
轨道倾角: 45.004°
近地点辐角 254.307°
升交点赤经 27.308°
平近点角 105.702°
近地点: 530.3km
远地点: 540.13km
周期: 95.344分钟
每日圈数: 15.103229
详细信息
使用方式:
暂无
2D轨道图
3D轨道图
轨道高度分析图
轨道倾角分析图
轨道综合分析图
查看轨道综合分析图